Home   Weather   Malabo   Past weeks

Flag for Equatorial Guinea Past Weather in Malabo, Equatorial Guinea — Yesterday and Last 2 Weeks

Now
82 °F

Partly sunny.


Feels Like: 88 °F
Forecast: 74 / 80 °F
Wind: 7 mph from West

Location: Malabo/Fernando Poo

Current Time: Aug 19, 2017 at 12:23:18 pm

Latest Report: Aug 19, 2017 at 11:00 am


Visibility: N/A

Pressure: 29.98 "Hg

Humidity: 74%

Dew Point: 73 °F

Location of MalaboLocation

Past Weather in Malabo — Graph

°F

Malabo Temperature Yesterday

Maximum temperature yesterday: 84 °F (at 12:00 pm)
Minimum temperature yesterday: 72 °F (at 4:00 am)
Average temperature yesterday: 78 °F

High & Low Weather Summary for the Past Weeks

 TemperatureHumidityPressure
High86 °F (Aug 6, 1:00 pm)94% (Aug 5, 4:00 am)30.07 "Hg (Aug 5, 4:00 am)
Low72 °F (Aug 9, 10:00 am)66% (Aug 6, 1:00 pm)29.83 "Hg (Aug 17, 3:00 pm)
Average77 °F87%29.94 "Hg
* Reported Aug 4 10:00 am — Aug 19 10:00 am, Malabo. Weather by CustomWeather, © 2017

Note: Actual official high and low records may vary slightly from our data, if they occured in-between our weather recording intervals... More about our weather records

Advertising

Malabo Weather History for the Previous 24 Hours

Scroll right to see more
 ConditionsComfort  
Time TempWeatherWind HumidityBarometerVisibility
10:00 am
Sat, Aug 19
82 °FPartly sunny.6 mph74%29.98 "HgN/A
8:00 am75 °FPartly sunny.5 mph89%29.95 "HgN/A
7:00 am73 °FPartly sunny.6 mph89%29.92 "HgN/A
6:00 am72 °FPassing clouds.7 mph88%29.92 "HgN/A
5:00 am72 °FPassing clouds.6 mph94%29.89 "HgN/A
4:00 am72 °FPassing clouds.7 mph94%29.89 "HgN/A
3:00 am72 °FPassing clouds.5 mph88%29.89 "HgN/A
2:00 am72 °FPassing clouds.3 mph94%29.89 "HgN/A
1:00 am73 °FPassing clouds.2 mph89%29.92 "HgN/A
12:00 am73 °FPassing clouds.3 mph94%29.92 "HgN/A
11:00 pm
Fri, Aug 18
77 °FPassing clouds.No wind83%29.92 "HgN/A
10:00 pm77 °FPassing clouds.3 mph83%29.92 "HgN/A
9:00 pm77 °FPassing clouds.6 mph83%29.89 "HgN/A
8:00 pm77 °FPassing clouds.6 mph83%29.89 "HgN/A
7:00 pm77 °FPassing clouds.5 mph89%29.86 "HgN/A
6:00 pm79 °FPartly sunny.9 mph79%29.86 "HgN/A
5:00 pm81 °FScattered clouds.8 mph79%29.83 "HgN/A
4:00 pm82 °FScattered clouds.13 mph79%29.83 "HgN/A
3:00 pm82 °FScattered clouds.9 mph79%29.83 "HgN/A
2:00 pm82 °FScattered clouds.10 mph74%29.86 "HgN/A
1:00 pm84 °FScattered clouds.13 mph74%29.89 "HgN/A
12:00 pm84 °FScattered clouds.12 mph70%29.92 "HgN/A
Weather by CustomWeather, © 2017

See weather overviewHow to use our weather pages